Home > Weather > Huntsville > Past weeks

Flag for USA Past Weather in Huntsville, Alabama, USA — Yesterday and Last 2 Weeks

Now
86 °F

Partly sunny.


Feels Like: 91 °F
Forecast: 73 / 86 °F
Wind: 12 mph from Southwest

Location: Huntsville International / Jones Field

Current Time: Jul 29, 2016 at 2:48:59 PM

Latest Report: Jul 29, 2016 at 1:53 PM


Visibility: 10 mi

Pressure: 29.97 "Hg

Humidity: 59%

Dew Point: 70 °F

Location of HuntsvilleLocation

Past Weather in Huntsville — Graph

°F

Huntsville Temperature Yesterday

Maximum temperature yesterday: 82 °F (at 11:53 AM)
Minimum temperature yesterday: 73 °F (at 7:53 PM)
Average temperature yesterday: 77 °F

High & Low Weather Summary for the Past Weeks

 TemperatureHumidityPressure
High99 °F (Jul 21, 4:53 PM)96% (Jul 19, 7:53 PM)30.26 "Hg (Jul 19, 7:53 PM)
Low72 °F (Jul 15, 1:53 AM)30% (Jul 26, 5:53 PM)29.90 "Hg (Jul 26, 4:53 PM)
Average82 °F69%30.04 "Hg
* Reported Jul 14 12:53 PM — Jul 29 12:53 PM, Huntsville, Weather by CustomWeather, © 2016

Note: Actual official high and low records may vary slightly from our data, if they occured in-between our weather recording intervals... More about our weather records

Advertising

Huntsville Weather History for the Previous 24 Hours

Scroll right to see more
 ConditionsComfort  
Time TempWeatherWind HumidityBarometerVisibility
12:53 PM
Fri, Jul 29
87 °FBroken clouds.7 mph59%29.99 "Hg10 mi
11:53 AM85 °FScattered clouds.6 mph61%30.01 "Hg10 mi
10:53 AM80 °FMore clouds than sun.7 mph71%30.01 "Hg10 mi
9:53 AM78 °FLow clouds.7 mph79%30.01 "Hg10 mi
8:53 AM76 °FLow clouds.6 mph85%30.01 "Hg10 mi
7:53 AM75 °FLow clouds.5 mph88%30.00 "Hg7 mi
6:53 AM74 °FMostly cloudy.No wind88%30.00 "Hg7 mi
5:53 AM74 °FMostly cloudy.No wind88%29.99 "Hg10 mi
4:53 AM74 °FOvercast.No wind88%29.98 "Hg10 mi
3:53 AM73 °FPassing clouds.No wind90%29.98 "Hg10 mi
2:53 AM74 °FPartly cloudy.No wind88%29.98 "Hg10 mi
1:53 AM74 °FPassing clouds.No wind88%29.99 "Hg10 mi
12:53 AM74 °FClear.No wind91%29.97 "Hg10 mi
11:53 PM
Thu, Jul 28
74 °FPassing clouds.No wind88%29.97 "Hg10 mi
10:53 PM74 °FPassing clouds.No wind88%29.97 "Hg10 mi
9:53 PM74 °FLow clouds.3 mph88%29.98 "Hg10 mi
8:53 PM74 °FPassing clouds.No wind85%29.96 "Hg10 mi
7:53 PM73 °FOvercast.3 mph88%29.96 "Hg10 mi
6:53 PM74 °FLight rain. Overcast.5 mph82%29.96 "Hg10 mi
5:53 PM77 °FLight rain. Broken clouds.6 mph77%29.93 "Hg10 mi
4:53 PM78 °FScattered clouds.7 mph82%29.94 "Hg10 mi
4:04 PM77 °FLight rain. Scattered clouds.10 mph85%29.95 "Hg10 mi
3:53 PM77 °FLight rain. Mostly cloudy.9 mph85%29.93 "Hg6 mi
2:53 PM76 °FRain. Fog.8 mph88%29.94 "Hg4 mi
Weather by CustomWeather, © 2016

See weather overviewHow to use our weather pages